[[{"header":{"parameterUnit":"m.s-1","parameterCategory":2,"la1":30.2991,"la2":30.254,"lo1":-89.0895,"lo2":-89.0444,"dy":0.0017,"dx":0.0017,"nx":28,"ny":28,"refTime":"2024-05-24T03:00:00:Z","depth":"0","parameterNumber":2,"parameterNumberName":"U-component_of_CURRENTS"},"data":[0,0,0,0,0,0,0,0,0,0,0,0,0,0,0,0,0,0,0,0,0,0,0,0,0,0,0,0,0,0,0,0,0,0,0,0,0,0,0,0,0,0,0,0,0,0,0,0,0,0,0,0,0,0,0,0,0,0,0.3835,0.3836,0,0.3884,0.3884,0.3885,0.3871,0.387,0.3869,0.3868,0.3881,0.3882,0.3883,0,0,0,0,0,0,0,0,0,0,0,0,0,0.3764,0.3765,0.3835,0.3836,0.3837,0.3884,0.3884,0.3885,0.3871,0.387,0.3869,0.3868,0.388,0.3882,0.3883,0,0,0,0,0,0,0,0,0,0,0,0,0,0.38,0.3765,0.3835,0.3837,0.3837,0.3884,0.3884,0.3885,0.3871,0.387,0.3869,0.3867,0.388,0.3881,0.3883,0.3919,0,0,0.3888,0.3889,0,0,0,0,0,0,0,0,0.3798,0.3803,0.3836,0.3837,0.3838,0.3871,0.3864,0.3895,0.3871,0.3857,0.3868,0.3867,0.3876,0.3878,0.3888,0.392,0.392,0.3888,0.3889,0.389,0.3891,0,0,0,0,0,0,0,0.3796,0.3801,0.3853,0.3837,0.3838,0.3847,0.385,0.387,0.3871,0.3858,0.3857,0.3866,0.3876,0.3887,0.3888,0.392,0.3888,0.389,0.3891,0.3892,0.4057,0.406,0,0,0,0,0,0,0.3793,0.3798,0.3851,0.3854,0.3816,0.3849,0.3853,0.386,0.3872,0.3873,0.3867,0.3865,0.3885,0.3886,0.3889,0.4004,0.389,0.3892,0.3893,0.4054,0.4058,0.4061,0,0,0,0,0,0,0.3791,0.3797,0.3849,0.3829,0.3836,0.3851,0.3861,0.3862,0.3879,0.3879,0.3879,0.3883,0.3884,0.3886,0.3935,0.4001,0.3893,0.3894,0.405,0.4055,0.406,0.4188,0,0,0,0,0,0,0.3789,0.3796,0.3803,0.3829,0.3837,0.3894,0.3862,0.3864,0.3887,0.3885,0.3893,0.3892,0.3883,0.3933,0.3937,0.4002,0.3895,0.4045,0.4052,0.4058,0.418,0.4197,0.4212,0,0,0,0,0,0.3786,0.3805,0.3803,0.381,0.3845,0.3896,0.3903,0.3907,0.3889,0.3914,0.3925,0.3892,0.3976,0.3938,0.3941,0.4008,0.4042,0.405,0.4057,0.4173,0.4194,0.4212,0,0,0,0,0,0,0.3776,0.3806,0.3804,0.383,0.3867,0.3895,0.3917,0.3918,0.3947,0.3946,0.3931,0.3934,0.4005,0.3991,0.3948,0.4076,0.4006,0.4015,0.4093,0.4112,0.4128,0.4115,0.3897,0,0,0,0,0,0.3778,0.3799,0.3833,0.3856,0.3877,0.3899,0.3918,0.393,0.3957,0.3967,0.3974,0.3996,0.4042,0.4061,0.4089,0.4154,0.4156,0.4202,0.4218,0.4232,0.4226,0.4292,0.4313,0.4086,0.4086,0.4086,0,0,0.3778,0.38,0.381,0.3856,0.3882,0.3941,0.3908,0.3955,0.4006,0.3966,0.4033,0.405,0.4072,0.4153,0.4183,0.4147,0.4308,0.4241,0.4253,0.4239,0.4302,0.4324,0.4343,0.4092,0.4091,0.409,0,0,0.3812,0.3815,0.3855,0.3897,0.395,0.3974,0.3992,0.4036,0.4056,0.4127,0.4122,0.4178,0.423,0.4269,0.4293,0.4414,0.4391,0.4428,0.45,0.4566,0.4584,0.46,0.4672,0.4693,0.4436,0.4437,0.4437,0,0.3815,0.3861,0.3877,0.394,0.3978,0.3994,0.4059,0.4099,0.4153,0.4194,0.4165,0.4281,0.4292,0.4404,0.4446,0.4452,0.4479,0.4423,0.4585,0.4601,0.4615,0.4684,0.4706,0.4444,0.4443,0.4442,0.4441,0,0.3891,0.393,0.3962,0.4042,0.4092,0.4147,0.4207,0.4261,0.4283,0.4328,0.443,0.4447,0.4514,0.4541,0.4528,0.4651,0.4638,0.4598,0.4531,0.4646,0.4712,0.4732,0.4454,0.4451,0.4449,0.4447,0,0,0.3895,0.3991,0.4004,0.405,0.4145,0.4195,0.4297,0.4396,0.4471,0.4524,0.4622,0.4698,0.4698,0.4723,0.4721,0.4768,0.4907,0.4727,0.4727,0.4789,0.5066,0.504,0.5059,0.4894,0.4897,0.49,0.5085,0,0.3948,0.4054,0.4098,0.421,0.427,0.4329,0.4421,0.452,0.459,0.4693,0.4738,0.4828,0.4773,0.481,0.4856,0.4903,0.496,0.486,0.4951,0.4954,0.4909,0.5081,0.4881,0.5026,0.5105,0.5108,0.511,0,0.4013,0.4074,0.4175,0.4286,0.4319,0.4395,0.4538,0.4625,0.4779,0.4835,0.4931,0.4965,0.5078,0.4984,0.5121,0.5063,0.507,0.5082,0.5089,0.5023,0.4965,0.4918,0.5059,0.4946,0.5141,0.5138,0.5136,0,0.4005,0.4128,0.4197,0.424,0.4376,0.4441,0.452,0.4675,0.4763,0.4931,0.5022,0.5135,0.5211,0.5247,0.5289,0.5218,0.5423,0.5331,0.5314,0.5313,0.5137,0.5114,0.5162,0.5405,0.5405,0.5404,0.5404,0,0.4038,0.4104,0.4197,0.4242,0.4341,0.4447,0.4566,0.4675,0.4841,0.497,0.5082,0.5198,0.5274,0.5395,0.5382,0.5454,0.5513,0.5367,0.5373,0.5182,0.5162,0.5045,0.4987,0.5411,0.541,0.5408,0.5407,0,0.4035,0.4089,0.4177,0.43,0.4337,0.4417,0.4569,0.4668,0.4835,0.5009,0.5074,0.53,0.5477,0.5556,0.5661,0.5593,0.5497,0.5632,0.5415,0.5391,0.5217,0.5174,0.5019,0.487,0.5645,0.5646,0.5647,0,0.4045,0.4085,0.4187,0.423,0.4286,0.4394,0.4471,0.4639,0.4744,0.5059,0.5145,0.5406,0.5547,0.5747,0.5715,0.5754,0.5552,0.5551,0.5357,0.5228,0.5185,0.4947,0.4814,0.5196,0.5193,0.519,0.5188,0,0.4066,0.409,0.4156,0.4223,0.4296,0.4362,0.4483,0.4558,0.4777,0.4937,0.5176,0.5332,0.5571,0.5554,0.5639,0.561,0.5295,0.5496,0.541,0.4895,0.4588,0.444,0.5072,0.5165,0.5167,0.5169,0.517,0.5171,0.4075,0.41,0.4158,0.4223,0.4286,0.4322,0.4328,0.4469,0.4605,0.4793,0.505,0.5182,0.5326,0.543,0.5389,0.5209,0.5153,0.5012,0.4997,0.4787,0.4547,0.5149,0.5211,0.5214,0.5216,0.5218,0.5219,0,0.4064,0.4089,0.4152,0.4192,0.4203,0.4254,0.4323,0.4292,0.4367,0.4587,0.4747,0.4873,0.4885,0.4947,0.4902,0.4733,0.4442,0.4607,0.4213,0.4125,0.4722,0.4606,0.448,0.448,0.448,0.448,0.448,0.4481,0.4061,0.4086,0.4101,0.409,0.41,0.4024,0.4011,0.3997,0.4073,0.4132,0.4185,0.4335,0.4586,0.4675,0.4524,0.4399,0.4055,0.3863,0.3863,0.4298,0.4332,0.4364,0.4242,0.4042,0.4042,0.3043,0.3036,0.3031]},{"header":{"parameterUnit":"m.s-1","parameterCategory":2,"la1":30.2991,"la2":30.254,"lo1":-89.0895,"lo2":-89.0444,"dy":0.0017,"dx":0.0017,"nx":28,"ny":28,"refTime":"2024-05-24T03:00:00:Z","depth":"0","parameterNumber":3,"parameterNumberName":"V-component_of_CURRENTS"},"data":[0,0,0,0,0,0,0,0,0,0,0,0,0,0,0,0,0,0,0,0,0,0,0,0,0,0,0,0,0,0,0,0,0,0,0,0,0,0,0,0,0,0,0,0,0,0,0,0,0,0,0,0,0,0,0,0,0,0,0.0254,0.0254,0,0.0184,0.0183,0.0182,0.0129,0.0129,0.0129,0.0128,0.0023,0.0021,0.0018,0,0,0,0,0,0,0,0,0,0,0,0,0,0.0282,0.0282,0.0255,0.0254,0.0253,0.0184,0.0183,0.0182,0.0129,0.0129,0.0129,0.0128,0.0024,0.0021,0.0018,0,0,0,0,0,0,0,0,0,0,0,0,0,0.0245,0.0282,0.0255,0.022,0.0216,0.0185,0.0183,0.0182,0.013,0.0129,0.0129,0.0128,0.0025,0.0021,0.0017,0.0004,0,0,0.0006,0.0004,0,0,0,0,0,0,0,0,0.0247,0.0244,0.0226,0.0222,0.0218,0.0166,0.0154,0.0121,0.013,0.0161,0.0128,0.0128,0.0069,0.0062,0.0048,-0.0001,-0.0005,0.0006,0.0003,0.0002,0.0001,0,0,0,0,0,0,0,0.025,0.0246,0.0225,0.0225,0.022,0.0186,0.0181,0.0147,0.0117,0.0158,0.0154,0.0149,0.0066,0.0052,0.0045,-0.0007,0.0006,0.0002,0.0,-0.0001,-0.0064,-0.0063,0,0,0,0,0,0,0.0266,0.0249,0.0227,0.0223,0.0233,0.0187,0.0181,0.0182,0.0118,0.0108,0.015,0.0147,0.0058,0.0049,0.0041,0.005,0.0002,-0.0002,-0.0004,-0.0064,-0.0064,-0.0063,0,0,0,0,0,0,0.0267,0.0265,0.023,0.0235,0.0229,0.0188,0.0189,0.0181,0.0171,0.0112,0.0101,0.0149,0.0057,0.0046,0.0021,0.0044,-0.0003,-0.0007,-0.0065,-0.0064,-0.0063,0.0049,0,0,0,0,0,0,0.0268,0.0266,0.0271,0.0237,0.0229,0.0228,0.0189,0.018,0.0169,0.0165,0.0108,0.0097,0.0056,0.0027,0.0017,0.0038,-0.001,-0.0066,-0.0065,-0.0063,0.0044,0.0053,0.0061,0,0,0,0,0,0.0269,0.0288,0.0272,0.0269,0.0239,0.0229,0.0222,0.0189,0.017,0.0176,0.0134,0.0099,0.0027,0.0024,0.0013,0.0033,-0.0066,-0.0065,-0.0064,0.0041,0.0052,0.0061,0,0,0,0,0,0,0.0301,0.0283,0.0266,0.0277,0.0259,0.0221,0.0221,0.0199,0.017,0.0164,0.0106,0.0093,0.0078,0.0038,0.0037,0.0017,-0.0025,-0.0026,0.0058,0.0068,0.0076,0.0111,-0.0013,0,0,0,0,0,0.0312,0.032,0.0295,0.0302,0.0298,0.0261,0.0251,0.0231,0.0201,0.0188,0.0148,0.0105,0.0073,0.0058,0.002,0.0012,-0.0024,0.0016,0.0025,0.0032,0.0052,0.001,0.0017,-0.0059,-0.0059,-0.0059,0,0,0.0325,0.0316,0.032,0.0309,0.029,0.0305,0.0254,0.0251,0.0263,0.0181,0.0182,0.0131,0.0076,0.0066,0.0056,0.0038,0.0036,0.0034,0.0041,0.0056,0.0012,0.0019,0.0026,-0.0058,-0.0058,-0.0058,0,0,0.0368,0.035,0.0377,0.0373,0.0358,0.0338,0.0344,0.0314,0.03,0.029,0.0237,0.0205,0.0154,0.0126,0.0103,0.0135,0.0078,0.0118,0.0194,0.0154,0.016,0.0165,0.0138,0.014,0.0127,0.0127,0.0127,0,0.0384,0.0415,0.0382,0.041,0.0417,0.0363,0.0398,0.038,0.0345,0.0349,0.0305,0.0242,0.0187,0.0189,0.0194,0.0158,0.0126,0.0164,0.0167,0.0171,0.0174,0.0145,0.0145,0.0133,0.0132,0.0131,0.0131,0,0.0454,0.0476,0.0492,0.0512,0.0513,0.0532,0.0509,0.0509,0.0478,0.0459,0.0444,0.0363,0.0331,0.0302,0.0254,0.0259,0.0227,0.018,0.0148,0.0189,0.0155,0.0153,0.0141,0.0139,0.0137,0.0136,0,0,0.0497,0.0536,0.0541,0.0579,0.057,0.059,0.0608,0.0622,0.0664,0.0595,0.0636,0.0547,0.0499,0.0469,0.0401,0.036,0.0344,0.0288,0.0283,0.0274,0.0265,0.0242,0.0237,0.0295,0.0295,0.0295,0.0236,0,0.0562,0.0646,0.0639,0.0719,0.0763,0.0732,0.0769,0.0771,0.0753,0.0779,0.0689,0.0695,0.0565,0.0563,0.0493,0.0398,0.0344,0.0366,0.0216,0.0212,0.0196,0.0236,0.024,0.0187,0.0234,0.0233,0.0233,0,0.0638,0.0686,0.0779,0.085,0.0868,0.0911,0.097,0.0996,0.1002,0.0992,0.0954,0.0889,0.0832,0.0711,0.0546,0.0566,0.0423,0.0327,0.0321,0.0263,0.0186,0.0149,0.0181,-0.0062,0.023,0.023,0.0231,0,0.0708,0.0786,0.0871,0.0894,0.096,0.1009,0.1045,0.107,0.1132,0.1144,0.1198,0.1077,0.1066,0.0864,0.0647,0.06,0.0469,0.0375,0.0215,0.0212,0.0169,0.0162,-0.004,0.0245,0.0245,0.0245,0.0245,0,0.0787,0.0859,0.0924,0.0979,0.1105,0.1111,0.1242,0.1263,0.1327,0.1448,0.1324,0.1399,0.1103,0.0988,0.0734,0.0497,0.0527,0.0248,0.02,0.0208,0.0205,-0.0048,-0.0179,0.0243,0.0243,0.0244,0.0244,0,0.0864,0.0896,0.1015,0.1109,0.1149,0.1248,0.1385,0.1484,0.1531,0.1688,0.1712,0.1655,0.1519,0.1215,0.0924,0.0651,0.0264,0.03,0.0339,0.0296,-0.0108,-0.0231,-0.0467,-0.057,0.0108,0.0107,0.0106,0,0.0916,0.0983,0.1121,0.1205,0.1261,0.1398,0.1503,0.1581,0.1702,0.1869,0.1968,0.1903,0.1893,0.1461,0.0969,0.0533,0.0276,0.0232,0.012,-0.011,-0.0284,-0.0381,-0.0457,0.0106,0.0105,0.0104,0.0104,0,0.1023,0.107,0.1167,0.133,0.1462,0.1617,0.1779,0.1907,0.2039,0.2204,0.2396,0.2417,0.2021,0.1587,0.0975,0.0658,0.0069,0.0206,-0.0049,-0.0305,-0.0407,-0.0533,0.0129,0.0099,0.01,0.01,0.01,0.01,0.1106,0.1193,0.1311,0.1469,0.1625,0.1822,0.1969,0.217,0.2413,0.2681,0.2688,0.2766,0.2133,0.1306,0.0856,0.0023,0.0011,-0.0259,-0.0387,-0.0463,-0.0573,0.0092,0.0014,0.0014,0.0014,0.0014,0.0014,0,0.1194,0.1286,0.1438,0.163,0.1807,0.1872,0.2142,0.2315,0.2629,0.2874,0.3047,0.2764,0.2002,0.1217,0.0091,-0.0484,-0.0683,-0.078,-0.0937,-0.0987,-0.041,-0.0423,-0.0577,-0.0577,-0.0577,-0.0577,-0.0577,-0.0576,0.1246,0.1386,0.1456,0.1738,0.1884,0.2129,0.229,0.258,0.2796,0.31,0.3146,0.3118,0.2501,0.0573,-0.0741,-0.1037,-0.1389,-0.1486,-0.166,-0.1298,-0.126,-0.1224,-0.1268,-0.1598,-0.1599,-0.2174,-0.218,-0.2184]}],[{"header":{"parameterUnit":"m.s-1","parameterCategory":2,"la1":30.2991,"la2":30.254,"lo1":-89.0895,"lo2":-89.0444,"dy":0.0017,"dx":0.0017,"nx":28,"ny":28,"refTime":"2024-05-24T03:00:00:Z","depth":"2","parameterNumber":2,"parameterNumberName":"U-component_of_CURRENTS"},"data":[0,0,0,0,0,0,0,0,0,0,0,0,0,0,0,0,0,0,0,0,0,0,0,0,0,0,0,0,0,0,0,0,0,0,0,0,0,0,0,0,0,0,0,0,0,0,0,0,0,0,0,0,0,0,0,0,0,0,0.3384,0.3385,0,0.3432,0.3432,0.3432,0.3436,0.3436,0.3435,0.3435,0.3463,0.3464,0.3465,0,0,0,0,0,0,0,0,0,0,0,0,0,0.3313,0.3314,0.3384,0.3385,0.3385,0.3432,0.3432,0.3433,0.3436,0.3436,0.3435,0.3435,0.3462,0.3464,0.3465,0,0,0,0,0,0,0,0,0,0,0,0,0,0.3349,0.3315,0.3384,0.3394,0.3395,0.3431,0.3432,0.3433,0.3436,0.3436,0.3435,0.3434,0.3462,0.3464,0.3465,0.3486,0,0,0.347,0.3471,0,0,0,0,0,0,0,0,0.3347,0.3351,0.3392,0.3393,0.3395,0.3429,0.3418,0.345,0.3436,0.3419,0.3435,0.3434,0.3451,0.3454,0.3462,0.3488,0.3489,0.347,0.3471,0.3472,0.3472,0,0,0,0,0,0,0,0.3345,0.335,0.3401,0.3393,0.3395,0.3402,0.3406,0.3424,0.3436,0.342,0.3421,0.3429,0.3451,0.346,0.3462,0.3489,0.347,0.3472,0.3473,0.3473,0.3614,0.3617,0,0,0,0,0,0,0.3342,0.3347,0.34,0.3403,0.3371,0.3404,0.3409,0.3417,0.3436,0.3439,0.343,0.3429,0.3458,0.346,0.3463,0.3555,0.3472,0.3473,0.3474,0.3612,0.3615,0.3618,0,0,0,0,0,0,0.334,0.3346,0.3398,0.3377,0.3385,0.3406,0.3416,0.3418,0.3442,0.3444,0.3446,0.3451,0.3457,0.3461,0.3505,0.3553,0.3474,0.3476,0.3608,0.3613,0.3616,0.3697,0,0,0,0,0,0,0.3338,0.3345,0.3356,0.3377,0.3386,0.3436,0.3416,0.342,0.3447,0.3448,0.3463,0.3464,0.3457,0.3503,0.3507,0.3554,0.3477,0.3605,0.361,0.3615,0.3691,0.3703,0.3714,0,0,0,0,0,0.3335,0.335,0.3356,0.3363,0.3398,0.3437,0.3443,0.3454,0.3449,0.3471,0.3486,0.3464,0.3539,0.3507,0.351,0.3559,0.3602,0.3609,0.3615,0.3685,0.3701,0.3713,0,0,0,0,0,0,0.3324,0.3353,0.3359,0.3382,0.3416,0.3439,0.346,0.3468,0.3497,0.35,0.3494,0.3498,0.3558,0.3551,0.3516,0.3618,0.357,0.3577,0.3622,0.3637,0.3648,0.3646,0.3478,0,0,0,0,0,0.3327,0.3348,0.338,0.3401,0.342,0.3444,0.3463,0.3477,0.3502,0.3514,0.3526,0.3549,0.3586,0.3603,0.3629,0.368,0.3695,0.3717,0.3729,0.3739,0.3742,0.3821,0.384,0.3638,0.3638,0.3638,0,0,0.3328,0.3349,0.3359,0.3401,0.3426,0.3463,0.3454,0.3496,0.353,0.3514,0.3566,0.359,0.361,0.3672,0.3698,0.3672,0.3808,0.3747,0.3755,0.3753,0.3829,0.3849,0.3866,0.3642,0.3642,0.3641,0,0,0.3344,0.3362,0.3388,0.3422,0.347,0.3489,0.3506,0.3547,0.357,0.363,0.3631,0.3685,0.3731,0.376,0.3779,0.3871,0.3868,0.3885,0.394,0.4017,0.4034,0.4049,0.4103,0.4122,0.389,0.389,0.389,0,0.3347,0.3379,0.3404,0.3444,0.3473,0.3503,0.3542,0.3578,0.3629,0.3671,0.3659,0.3771,0.3777,0.3865,0.3893,0.3897,0.3933,0.3881,0.4032,0.4047,0.406,0.4112,0.4132,0.3894,0.3894,0.3893,0.3893,0,0.338,0.3416,0.3439,0.3494,0.3531,0.3573,0.3623,0.3675,0.371,0.3753,0.3856,0.3881,0.3952,0.3966,0.3953,0.4064,0.4055,0.4037,0.3991,0.4085,0.4134,0.4153,0.3901,0.3899,0.3898,0.3897,0,0,0.3361,0.3444,0.3452,0.349,0.356,0.3594,0.3672,0.3756,0.3825,0.389,0.3985,0.405,0.4082,0.4106,0.4112,0.4162,0.4283,0.4142,0.4144,0.4186,0.4453,0.4388,0.4402,0.4298,0.4302,0.4305,0.4449,0,0.3382,0.3452,0.3489,0.3562,0.3606,0.3667,0.3738,0.3824,0.3899,0.4002,0.4068,0.4156,0.4132,0.4177,0.4235,0.4277,0.4337,0.4245,0.4362,0.4365,0.4289,0.4424,0.4077,0.4171,0.4468,0.4471,0.4473,0,0.3402,0.3447,0.3515,0.3611,0.3637,0.3694,0.3821,0.3887,0.4039,0.4107,0.4222,0.4271,0.4381,0.433,0.4476,0.4425,0.445,0.4464,0.4471,0.4392,0.4337,0.4125,0.4195,0.4505,0.4503,0.45,0.4498,0,0.3376,0.3468,0.3519,0.355,0.3661,0.3726,0.3796,0.3937,0.4016,0.4183,0.4275,0.4404,0.45,0.4556,0.4606,0.456,0.4746,0.4688,0.4654,0.4648,0.4364,0.4328,0.4788,0.4788,0.4787,0.4787,0.4787,0,0.3377,0.3419,0.3521,0.3553,0.3639,0.3726,0.383,0.3942,0.4097,0.421,0.4333,0.4446,0.4565,0.4678,0.4678,0.475,0.4826,0.4694,0.4699,0.4384,0.435,0.4634,0.4615,0.4792,0.4791,0.479,0.4789,0,0.3336,0.3397,0.3463,0.3585,0.3633,0.3696,0.384,0.3915,0.4088,0.4245,0.4308,0.4535,0.469,0.4778,0.4895,0.4862,0.4903,0.4895,0.4513,0.447,0.4729,0.4712,0.4883,0.4883,0.4882,0.4882,0.4881,0,0.3318,0.3359,0.3472,0.3505,0.3564,0.366,0.3727,0.3897,0.3986,0.4279,0.4359,0.4592,0.4706,0.4882,0.4871,0.49,0.4942,0.4578,0.4418,0.4761,0.4748,0.4731,0.4716,0.4074,0.4067,0.4062,0.4057,0,0.3292,0.3336,0.3376,0.3451,0.3522,0.3584,0.3712,0.376,0.3968,0.4116,0.4318,0.4437,0.4665,0.4565,0.4648,0.4597,0.4544,0.4465,0.4954,0.4108,0.4011,0.3994,0.4002,0.4006,0.4011,0.4015,0.4018,0.402,0.3263,0.3277,0.3333,0.3381,0.3449,0.349,0.3482,0.3609,0.3712,0.3875,0.4106,0.4187,0.4292,0.4251,0.4132,0.4057,0.4355,0.4136,0.4148,0.4167,0.4052,0.396,0.3923,0.3928,0.3931,0.3935,0.3938,0,0.3204,0.3231,0.3266,0.3287,0.3261,0.3382,0.3449,0.3381,0.3408,0.3624,0.3749,0.3538,0.3531,0.3621,0.345,0.3462,0.3362,0.3302,0.3131,0.3189,0.3239,0.3067,0.2682,0.2677,0.2672,0.2668,0,0,0.3168,0.3148,0.3146,0.3078,0.3105,0.3061,0.3056,0.3018,0.3092,0.3049,0.3108,0.3408,0.357,0.3088,0.3031,0.2824,0.2965,0.2714,0.3742,0.3603,0.3645,0.3767,0.3577,0,0,0,0,0]},{"header":{"parameterUnit":"m.s-1","parameterCategory":2,"la1":30.2991,"la2":30.254,"lo1":-89.0895,"lo2":-89.0444,"dy":0.0017,"dx":0.0017,"nx":28,"ny":28,"refTime":"2024-05-24T03:00:00:Z","depth":"2","parameterNumber":3,"parameterNumberName":"V-component_of_CURRENTS"},"data":[0,0,0,0,0,0,0,0,0,0,0,0,0,0,0,0,0,0,0,0,0,0,0,0,0,0,0,0,0,0,0,0,0,0,0,0,0,0,0,0,0,0,0,0,0,0,0,0,0,0,0,0,0,0,0,0,0,0,0.0118,0.0117,0,0.0056,0.0055,0.0054,0.0007,0.0006,0.0006,0.0006,-0.0089,-0.0091,-0.0093,0,0,0,0,0,0,0,0,0,0,0,0,0,0.0139,0.0139,0.0118,0.0117,0.0116,0.0056,0.0055,0.0054,0.0007,0.0006,0.0006,0.0005,-0.0088,-0.0091,-0.0093,0,0,0,0,0,0,0,0,0,0,0,0,0,0.0108,0.0139,0.0118,0.0086,0.0083,0.0056,0.0055,0.0054,0.0007,0.0006,0.0006,0.0005,-0.0087,-0.009,-0.0094,-0.0104,0,0,-0.0104,-0.0105,0,0,0,0,0,0,0,0,0.011,0.0107,0.0092,0.0089,0.0085,0.0039,0.0028,-0.0,0.0007,0.0034,0.0006,0.0005,-0.0048,-0.0054,-0.0066,-0.0109,-0.0113,-0.0104,-0.0106,-0.0108,-0.0109,0,0,0,0,0,0,0,0.0112,0.0109,0.0092,0.0091,0.0087,0.0056,0.0052,0.0022,-0.0005,0.0032,0.0029,0.0024,-0.005,-0.0063,-0.0069,-0.0114,-0.0104,-0.0107,-0.0109,-0.011,-0.0163,-0.0163,0,0,0,0,0,0,0.0126,0.0111,0.0094,0.009,0.0098,0.0057,0.0051,0.0053,-0.0004,-0.0012,0.0024,0.0022,-0.0057,-0.0065,-0.0072,-0.0065,-0.0108,-0.0111,-0.0113,-0.0164,-0.0163,-0.0163,0,0,0,0,0,0,0.0127,0.0125,0.0096,0.01,0.0094,0.0057,0.006,0.0053,0.0045,-0.0009,-0.0019,0.0025,-0.0058,-0.0068,-0.009,-0.007,-0.0112,-0.0115,-0.0165,-0.0164,-0.0163,-0.0066,0,0,0,0,0,0,0.0128,0.0126,0.0132,0.0101,0.0094,0.0095,0.006,0.0052,0.0043,0.0039,-0.0012,-0.0022,-0.0059,-0.0084,-0.0093,-0.0075,-0.0118,-0.0165,-0.0164,-0.0163,-0.007,-0.0062,-0.0055,0,0,0,0,0,0.0129,0.0147,0.0133,0.0131,0.0105,0.0096,0.009,0.006,0.0044,0.0049,0.0012,-0.002,-0.0084,-0.0086,-0.0097,-0.008,-0.0166,-0.0165,-0.0163,-0.0073,-0.0063,-0.0055,0,0,0,0,0,0,0.0159,0.0143,0.0127,0.0139,0.0123,0.0089,0.009,0.007,0.0045,0.004,-0.0013,-0.0024,-0.0038,-0.0073,-0.0074,-0.0093,-0.013,-0.0131,-0.0058,-0.0049,-0.0042,-0.0015,-0.0121,0,0,0,0,0,0.0169,0.0178,0.0155,0.0163,0.0159,0.0126,0.0118,0.01,0.0073,0.0062,0.0026,-0.0013,-0.0041,-0.0055,-0.0088,-0.0096,-0.0135,-0.0093,-0.0085,-0.0078,-0.0064,-0.0108,-0.0102,-0.0158,-0.0158,-0.0158,0,0,0.0182,0.0174,0.0178,0.0169,0.0152,0.0165,0.012,0.0118,0.0128,0.0055,0.0056,0.0011,-0.0038,-0.0048,-0.0056,-0.0073,-0.0084,-0.0077,-0.007,-0.006,-0.0106,-0.01,-0.0095,-0.0157,-0.0158,-0.0158,0,0,0.022,0.0207,0.0231,0.0227,0.0213,0.0195,0.0201,0.0174,0.0163,0.0153,0.0106,0.0077,0.0033,0.0005,-0.0016,0.0012,-0.0045,-0.0,0.0062,0.002,0.0025,0.0028,-0.0014,-0.0015,0.0006,0.0006,0.0006,0,0.0235,0.0263,0.0235,0.0259,0.0264,0.0218,0.0248,0.0233,0.0202,0.0202,0.0167,0.0108,0.006,0.0055,0.0061,0.0031,-0.0004,0.0035,0.0032,0.0034,0.0036,-0.0009,-0.0011,0.0011,0.0011,0.001,0.001,0,0.0295,0.0315,0.033,0.0346,0.0347,0.0364,0.0344,0.0344,0.0317,0.0297,0.0281,0.0211,0.018,0.0155,0.0115,0.0112,0.0079,0.0045,0.0013,0.0048,-0.0002,-0.0006,0.0018,0.0016,0.0015,0.0014,0,0,0.0332,0.0367,0.0372,0.0403,0.0397,0.0412,0.0428,0.0436,0.0465,0.0409,0.0432,0.0361,0.0319,0.0293,0.0234,0.0192,0.0164,0.0133,0.0128,0.0099,0.0072,0.0027,0.0017,0.0129,0.0129,0.0129,0.0032,0,0.0386,0.0458,0.0454,0.0521,0.0558,0.0532,0.0561,0.0559,0.0539,0.055,0.0472,0.0463,0.0374,0.0362,0.0307,0.0207,0.0158,0.0194,0.0035,0.0031,-0.0006,0.0013,0.0055,-0.003,0.0027,0.0026,0.0026,0,0.045,0.0489,0.0569,0.0629,0.0644,0.0681,0.0723,0.0742,0.0733,0.0718,0.0682,0.0615,0.0555,0.0468,0.0314,0.0342,0.0219,0.0126,0.012,0.0044,-0.0021,-0.0057,-0.004,0.0018,0.0018,0.0019,0.0019,0,0.0505,0.0574,0.0646,0.0665,0.072,0.0761,0.079,0.0801,0.0843,0.0829,0.0854,0.0749,0.0724,0.0554,0.0354,0.0335,0.0176,0.0123,-0.0036,-0.0041,-0.0053,-0.0058,0.0007,0.0008,0.0008,0.0008,0.0008,0,0.0571,0.0628,0.069,0.0736,0.084,0.0844,0.0945,0.0959,0.0994,0.1074,0.0956,0.0986,0.0745,0.062,0.0407,0.0182,0.0212,-0.0018,-0.0065,-0.0019,-0.002,-0.0018,-0.002,0.0004,0.0005,0.0006,0.0007,0,0.0622,0.0657,0.0754,0.0837,0.0877,0.0953,0.1063,0.1133,0.1154,0.1254,0.1259,0.1173,0.1009,0.0747,0.0479,0.0277,0.0044,-0.005,0.0019,-0.0019,-0.0162,-0.0158,-0.0234,-0.0237,-0.0239,-0.024,-0.0242,0,0.0656,0.0715,0.0839,0.0911,0.096,0.1071,0.1156,0.1212,0.1301,0.138,0.1446,0.1322,0.1258,0.0841,0.0457,0.0077,0.0027,-0.0139,-0.0179,-0.0146,-0.0185,-0.0178,-0.0171,-0.0159,-0.0159,-0.016,-0.016,0,0.0725,0.0771,0.0852,0.1,0.1112,0.1245,0.138,0.1472,0.1559,0.1649,0.1737,0.1687,0.131,0.0937,0.0413,0.0155,-0.008,-0.0162,-0.0134,-0.0105,-0.0083,-0.0119,-0.0113,-0.0164,-0.0164,-0.0164,-0.0163,-0.0163,0.0779,0.0849,0.0961,0.1102,0.1237,0.1414,0.1537,0.1683,0.1847,0.1993,0.1935,0.189,0.1466,0.0803,0.0343,-0.0129,-0.0108,-0.0274,-0.0269,-0.0264,-0.0238,-0.0221,-0.0324,-0.0324,-0.0325,-0.0325,-0.0325,0,0.0846,0.093,0.1056,0.1233,0.1384,0.1459,0.1686,0.1801,0.2011,0.2131,0.2187,0.179,0.1364,0.0875,0.018,-0.0248,-0.0271,-0.0387,-0.0313,-0.0305,-0.0299,-0.0273,-0.037,-0.0371,-0.0373,-0.0374,0,0,0.0886,0.1009,0.1072,0.1322,0.146,0.1688,0.183,0.2012,0.2144,0.2237,0.2235,0.2132,0.1543,0.1029,0.0444,0.0043,-0.0033,-0.0042,0.0043,0.0209,0.022,-0.0184,-0.013,0,0,0,0,0]}],[{"header":{"parameterUnit":"m.s-1","parameterCategory":2,"la1":30.2991,"la2":30.254,"lo1":-89.0895,"lo2":-89.0444,"dy":0.0017,"dx":0.0017,"nx":28,"ny":28,"refTime":"2024-05-24T03:00:00:Z","depth":"4","parameterNumber":2,"parameterNumberName":"U-component_of_CURRENTS"},"data":[0,0,0,0,0,0,0,0,0,0,0,0,0,0,0,0,0,0,0,0,0,0,0,0,0,0,0,0,0,0,0,0,0,0,0,0,0,0,0,0,0,0,0,0,0,0,0,0,0,0,0,0,0,0,0,0,0,0,0.2235,0.2236,0,0.2323,0.2324,0.2325,0.2399,0.24,0.2401,0.2402,0.2513,0.2515,0.2517,0,0,0,0,0,0,0,0,0,0,0,0,0,0.2125,0.2127,0.2235,0.2236,0.2237,0.2323,0.2324,0.2325,0.2399,0.24,0.2401,0.2402,0.2512,0.2515,0.2517,0,0,0,0,0,0,0,0,0,0,0,0,0,0.2187,0.2127,0.2234,0.2285,0.2291,0.2323,0.2324,0.2325,0.2398,0.24,0.2401,0.2402,0.2512,0.2515,0.2518,0.2508,0,0,0.2527,0.2529,0,0,0,0,0,0,0,0,0.2184,0.2191,0.2277,0.2282,0.2288,0.2353,0.2327,0.2388,0.2398,0.2356,0.2402,0.2403,0.2462,0.2469,0.248,0.2514,0.2518,0.2527,0.2529,0.2531,0.2532,0,0,0,0,0,0,0,0.2179,0.2188,0.2268,0.2278,0.2285,0.2303,0.2313,0.2338,0.2399,0.236,0.2366,0.2378,0.2465,0.2476,0.2483,0.252,0.2527,0.253,0.2532,0.2533,0.2703,0.2705,0,0,0,0,0,0,0.2171,0.2184,0.2265,0.2271,0.224,0.2304,0.2315,0.2329,0.2398,0.241,0.2376,0.2381,0.247,0.2479,0.2487,0.2603,0.2531,0.2534,0.2535,0.27,0.2703,0.2706,0,0,0,0,0,0,0.2168,0.2177,0.2262,0.223,0.2243,0.2304,0.232,0.233,0.2391,0.2411,0.2424,0.2432,0.2472,0.2483,0.2556,0.2604,0.2535,0.2538,0.2697,0.2701,0.2705,0.2757,0,0,0,0,0,0,0.2165,0.2176,0.2207,0.223,0.2244,0.2311,0.2319,0.2331,0.2394,0.2402,0.2462,0.2471,0.2474,0.2551,0.2559,0.2607,0.254,0.2694,0.2699,0.2703,0.2752,0.2762,0.2771,0,0,0,0,0,0.216,0.2184,0.2207,0.2219,0.2277,0.2312,0.2322,0.2368,0.2396,0.2428,0.2475,0.2472,0.2589,0.2556,0.2564,0.2614,0.2691,0.2697,0.2703,0.2748,0.276,0.2771,0,0,0,0,0,0,0.2154,0.2195,0.2221,0.2259,0.23,0.2326,0.2366,0.2395,0.2456,0.248,0.2499,0.2511,0.2594,0.2601,0.2564,0.268,0.2642,0.265,0.2673,0.2685,0.2695,0.2699,0.2543,0,0,0,0,0,0.2166,0.2201,0.2237,0.2276,0.2299,0.2343,0.2374,0.2406,0.245,0.2481,0.2523,0.2572,0.2616,0.2649,0.2685,0.2744,0.2763,0.2786,0.2795,0.2803,0.2815,0.2898,0.2916,0.2725,0.2725,0.2725,0,0,0.2176,0.2204,0.2227,0.2279,0.2316,0.2348,0.2367,0.2426,0.2466,0.2482,0.2568,0.2609,0.2641,0.271,0.2748,0.2727,0.2866,0.2811,0.2817,0.2825,0.2906,0.2925,0.2941,0.2729,0.2729,0.2728,0,0,0.219,0.224,0.2267,0.2304,0.2367,0.2389,0.2417,0.2474,0.2522,0.2595,0.2623,0.2697,0.2763,0.2795,0.2817,0.2903,0.2914,0.2927,0.2978,0.3059,0.3075,0.3089,0.3123,0.314,0.2931,0.2931,0.2931,0,0.2206,0.224,0.2283,0.2316,0.2354,0.241,0.2447,0.2492,0.2572,0.2626,0.2636,0.2778,0.2799,0.2886,0.2916,0.2923,0.2963,0.2925,0.307,0.3085,0.3099,0.313,0.3148,0.2934,0.2934,0.2933,0.2933,0,0.2219,0.2269,0.2292,0.2349,0.2396,0.2442,0.2501,0.2573,0.2639,0.2689,0.2817,0.286,0.295,0.2967,0.2965,0.3082,0.3076,0.307,0.3034,0.3121,0.3148,0.3166,0.2939,0.2938,0.2937,0.2936,0,0,0.2193,0.2283,0.2298,0.2342,0.2423,0.2461,0.2544,0.2634,0.2713,0.2805,0.2911,0.2992,0.3051,0.308,0.3106,0.3166,0.328,0.3169,0.3171,0.319,0.3448,0.3224,0.3222,0.3315,0.3319,0.3322,0.3421,0,0.2196,0.2261,0.2307,0.2385,0.2425,0.2512,0.2583,0.2683,0.2775,0.289,0.2978,0.3084,0.3083,0.3148,0.3215,0.3274,0.3334,0.3252,0.3372,0.3375,0.3157,0.3237,0.3335,0.3435,0.3439,0.3442,0.3444,0,0.218,0.2235,0.2308,0.2423,0.2452,0.2516,0.2666,0.2735,0.2895,0.2976,0.3109,0.3182,0.3308,0.3286,0.3443,0.3403,0.3439,0.3463,0.3468,0.3254,0.3184,0.3337,0.3476,0.3473,0.3471,0.3469,0.3467,0,0.2128,0.2233,0.23,0.2338,0.2468,0.2549,0.2633,0.2784,0.2865,0.3052,0.3143,0.3296,0.3397,0.3485,0.355,0.3527,0.3693,0.3661,0.3488,0.3472,0.3619,0.3603,0.3771,0.377,0.377,0.377,0.377,0,0.2086,0.2148,0.2298,0.2336,0.2434,0.2548,0.267,0.2777,0.2944,0.3039,0.3199,0.3291,0.3463,0.357,0.3603,0.3595,0.3749,0.3508,0.3492,0.3636,0.3621,0.363,0.3613,0.3774,0.3773,0.3772,0.3771,0,0.2004,0.21,0.2183,0.2349,0.2408,0.2486,0.2668,0.2748,0.293,0.3062,0.3133,0.334,0.3472,0.3593,0.3728,0.364,0.3661,0.3619,0.3759,0.3748,0.337,0.3355,0.343,0.3423,0.3417,0.3412,0.3408,0,0.1957,0.1997,0.2171,0.2221,0.2304,0.2438,0.2519,0.2715,0.2802,0.3053,0.3103,0.3308,0.3419,0.3434,0.3567,0.3614,0.3577,0.355,0.3454,0.3362,0.3341,0.3335,0.3327,0.3399,0.3397,0.3396,0.3394,0,0.1863,0.1947,0.2016,0.2117,0.2217,0.2303,0.2451,0.2494,0.2712,0.2911,0.3006,0.3077,0.3213,0.3303,0.3366,0.3389,0.3543,0.3488,0.3499,0.3409,0.3326,0.3309,0.3309,0.3374,0.3377,0.3379,0.338,0,0.1791,0.1813,0.1911,0.1977,0.2087,0.213,0.2228,0.2342,0.2451,0.2743,0.2765,0.2978,0.3178,0.3188,0.3244,0.3253,0.3204,0.3086,0.3117,0.3141,0.3,0.2848,0.2747,0,0,0,0,0,0.1704,0.1705,0.1757,0.1818,0.1918,0.1985,0.2158,0.2267,0.2491,0.2493,0.2625,0.2736,0.2822,0.2936,0.2891,0.311,0.3208,0.3041,0.3086,0.3262,0.3285,0.3144,0,0,0,0,0,0,0.1644,0.1688,0.1696,0.1661,0.1679,0.1774,0.1875,0.2033,0.2062,0.2302,0.2379,0.2562,0.2704,0.2823,0.2835,0.2869,0.2839,0.3185,0.3178,0.3249,0.327,0.3289,0.3152,0,0,0,0,0]},{"header":{"parameterUnit":"m.s-1","parameterCategory":2,"la1":30.2991,"la2":30.254,"lo1":-89.0895,"lo2":-89.0444,"dy":0.0017,"dx":0.0017,"nx":28,"ny":28,"refTime":"2024-05-24T03:00:00:Z","depth":"4","parameterNumber":3,"parameterNumberName":"V-component_of_CURRENTS"},"data":[0,0,0,0,0,0,0,0,0,0,0,0,0,0,0,0,0,0,0,0,0,0,0,0,0,0,0,0,0,0,0,0,0,0,0,0,0,0,0,0,0,0,0,0,0,0,0,0,0,0,0,0,0,0,0,0,0,0,0.007,0.0069,0,0.0029,0.0029,0.0028,-0.0008,-0.0008,-0.0008,-0.0008,-0.008,-0.0082,-0.0083,0,0,0,0,0,0,0,0,0,0,0,0,0,0.008,0.008,0.007,0.0069,0.0069,0.0029,0.0029,0.0028,-0.0007,-0.0008,-0.0008,-0.0009,-0.008,-0.0082,-0.0083,0,0,0,0,0,0,0,0,0,0,0,0,0,0.006,0.008,0.007,0.0047,0.0045,0.0029,0.0029,0.0028,-0.0007,-0.0008,-0.0008,-0.0009,-0.0079,-0.0081,-0.0084,-0.0089,0,0,-0.0091,-0.0092,0,0,0,0,0,0,0,0,0.0061,0.006,0.0051,0.0049,0.0046,0.0016,0.0006,-0.0012,-0.0007,0.0011,-0.0008,-0.0009,-0.005,-0.0055,-0.0062,-0.0092,-0.0095,-0.0091,-0.0093,-0.0094,-0.0094,0,0,0,0,0,0,0,0.0063,0.0061,0.0053,0.005,0.0047,0.0026,0.0023,0.0002,-0.0017,0.001,0.0007,0.0004,-0.0052,-0.006,-0.0064,-0.0096,-0.0091,-0.0093,-0.0095,-0.0096,-0.0131,-0.013,0,0,0,0,0,0,0.0072,0.0063,0.0054,0.0052,0.0054,0.0027,0.0023,0.0025,-0.0016,-0.0023,0.0005,0.0003,-0.0055,-0.0061,-0.0067,-0.0057,-0.0094,-0.0096,-0.0097,-0.0131,-0.0131,-0.013,0,0,0,0,0,0,0.0073,0.0072,0.0056,0.0056,0.0053,0.0028,0.003,0.0025,0.002,-0.002,-0.0027,0.0005,-0.0056,-0.0063,-0.0079,-0.0061,-0.0097,-0.0099,-0.0132,-0.0131,-0.013,-0.005,0,0,0,0,0,0,0.0073,0.0073,0.0078,0.0057,0.0053,0.0057,0.003,0.0025,0.0019,0.0016,-0.0022,-0.0029,-0.0057,-0.0075,-0.0082,-0.0065,-0.0101,-0.0132,-0.0131,-0.013,-0.0054,-0.0047,-0.0041,0,0,0,0,0,0.0074,0.0089,0.0079,0.0078,0.0062,0.0058,0.0054,0.0033,0.002,0.0025,-0.0003,-0.0028,-0.0074,-0.0077,-0.0084,-0.0068,-0.0133,-0.0132,-0.0131,-0.0056,-0.0048,-0.0041,0,0,0,0,0,0,0.0096,0.0086,0.0075,0.0086,0.0075,0.0052,0.0055,0.004,0.0022,0.0018,-0.0022,-0.003,-0.0039,-0.0065,-0.0068,-0.0076,-0.0107,-0.0108,-0.0048,-0.0041,-0.0035,-0.002,-0.0103,0,0,0,0,0,0.0104,0.0112,0.0097,0.0104,0.0103,0.0079,0.0075,0.0062,0.0043,0.0035,0.0008,-0.002,-0.004,-0.0049,-0.0073,-0.0076,-0.0116,-0.0072,-0.0065,-0.006,-0.0053,-0.0099,-0.0096,-0.0126,-0.0126,-0.0126,0,0,0.0115,0.0109,0.0114,0.0109,0.0099,0.0111,0.0076,0.0076,0.0086,0.003,0.0034,-0.0,-0.0037,-0.004,-0.0046,-0.0059,-0.0073,-0.0058,-0.0053,-0.005,-0.0097,-0.0094,-0.0092,-0.0125,-0.0125,-0.0126,0,0,0.0145,0.0136,0.0155,0.0154,0.0146,0.0135,0.0139,0.0122,0.0114,0.011,0.0074,0.005,0.0022,0.0,-0.0015,0.001,-0.0041,0.0005,0.0052,0.0009,0.0011,0.0012,-0.0037,-0.004,0.0011,0.0011,0.0011,0,0.0156,0.0178,0.0159,0.018,0.0186,0.0152,0.0178,0.0168,0.0147,0.0146,0.0122,0.0077,0.0042,0.0038,0.0047,0.0025,-0.001,0.003,0.0018,0.0018,0.0018,-0.0033,-0.0038,0.0015,0.0015,0.0014,0.0014,0,0.0203,0.022,0.0233,0.0248,0.0253,0.0268,0.0257,0.0258,0.0239,0.0223,0.021,0.0157,0.0132,0.0117,0.0089,0.0082,0.0053,0.0029,0.0001,0.0026,-0.0029,-0.0036,0.0021,0.0019,0.0018,0.0017,0,0,0.0229,0.026,0.0265,0.029,0.0292,0.0306,0.0323,0.033,0.0346,0.0309,0.0317,0.0273,0.0236,0.0216,0.0174,0.0136,0.01,0.0092,0.0088,0.0049,0.0001,-0.0023,-0.0033,0.0077,0.0076,0.0076,-0.0039,0,0.027,0.0326,0.0329,0.0385,0.0413,0.0399,0.0423,0.0423,0.0405,0.0403,0.0344,0.0333,0.0278,0.0266,0.0221,0.0132,0.0087,0.0134,-0.0022,-0.0027,-0.0047,-0.004,0.0074,-0.0044,-0.0046,-0.0047,-0.0048,0,0.0315,0.0347,0.0411,0.0461,0.0474,0.0507,0.0538,0.0554,0.0536,0.0521,0.0488,0.0435,0.0381,0.0325,0.0188,0.0222,0.0122,0.0044,0.0037,-0.0016,-0.0063,-0.0076,-0.0061,-0.006,-0.0059,-0.0058,-0.0057,0,0.0346,0.0407,0.0464,0.0481,0.0529,0.0564,0.059,0.0594,0.0619,0.0597,0.06,0.0517,0.048,0.0351,0.0188,0.0189,0.0021,-0.0002,-0.012,-0.0124,-0.0104,-0.0104,-0.0104,-0.0104,-0.0104,-0.0104,-0.0103,0,0.0386,0.0433,0.0493,0.0527,0.0605,0.0621,0.0693,0.07,0.0716,0.0753,0.067,0.0663,0.0485,0.0366,0.0211,0.0025,0.0034,-0.0112,-0.0152,-0.0068,-0.0063,-0.0109,-0.0108,-0.0108,-0.0107,-0.0106,-0.0105,0,0.0408,0.0444,0.0519,0.0593,0.0626,0.0683,0.0773,0.082,0.0826,0.0866,0.0864,0.0769,0.0615,0.0418,0.0195,0.0063,-0.012,-0.0192,-0.009,-0.0123,-0.0242,-0.0236,-0.0326,-0.0328,-0.033,-0.0331,-0.0332,0,0.0423,0.0464,0.057,0.0626,0.0669,0.076,0.0825,0.087,0.0926,0.0931,0.0955,0.0824,0.0731,0.0414,0.0188,-0.0118,-0.0164,-0.0264,-0.025,-0.0233,-0.0264,-0.0255,-0.0247,-0.0334,-0.0335,-0.0335,-0.0335,0,0.0449,0.049,0.0554,0.067,0.076,0.0863,0.0964,0.1011,0.1062,0.1063,0.1037,0.0868,0.0686,0.0425,0.0178,-0.0041,-0.02,-0.028,-0.0279,-0.0266,-0.0244,-0.0271,-0.0261,-0.034,-0.034,-0.0339,-0.0339,0,0.047,0.0519,0.061,0.0714,0.0829,0.0947,0.0993,0.1068,0.112,0.1129,0.1111,0.0914,0.0798,0.0463,0.0238,0.0015,-0.0042,-0.0112,-0.012,-0.0117,-0.003,0.0031,-0.0012,0,0,0,0,0,0.0491,0.0555,0.0648,0.0775,0.0889,0.0967,0.1082,0.112,0.1166,0.1164,0.1147,0.0979,0.065,0.0507,0.0282,0.0184,-0.0102,-0.009,-0.019,-0.0369,-0.0363,-0.0299,0,0,0,0,0,0,0.0509,0.0597,0.0648,0.0808,0.0904,0.1044,0.1125,0.1154,0.1161,0.1163,0.0999,0.0917,0.06,0.0785,0.0278,0.0207,0.0111,-0.0243,-0.0248,-0.0372,-0.0367,-0.0362,-0.0294,0,0,0,0,0]}]]